[[{"header":{"parameterUnit":"m.s-1","parameterCategory":1,"la1":30.2991,"la2":30.254,"lo1":-89.0895,"lo2":-89.0444,"dy":0.0017,"dx":0.0017,"nx":28,"ny":28,"refTime":"2025-08-15T21:00:00:Z","depth":0,"parameterNumber":2,"parameterNumberName":"U-component_of_WINDS"},"data":[0,0,0,0,0,0,0,0,0,0,0,0,0,0,0,0,0,0,0,0,0,0,0,0,0,0,0,0,0,0,0,0,0,0,0,0,0,0,0,0,0,0,0,0,0,0,0,0,0,0,0,0,0,0,0,0,0,0,3.3355,3.3356,0,3.3447,3.3448,3.3449,3.3385,3.3382,3.3379,3.3376,3.3474,3.348,3.3485,0,0,0,0,0,0,0,0,0,0,0,0,0,3.3131,3.3136,3.3355,3.3356,3.3357,3.3447,3.3448,3.3449,3.3385,3.3382,3.3378,3.3375,3.3473,3.3479,3.3485,0,0,0,0,0,0,0,0,0,0,0,0,0,3.3227,3.3137,3.3355,3.3336,3.3335,3.3447,3.3448,3.345,3.3386,3.3382,3.3377,3.3373,3.3471,3.3478,3.3486,3.3622,0,0,3.3511,3.3514,0,0,0,0,0,0,0,0,3.3221,3.3235,3.3338,3.3338,3.3337,3.34,3.3405,3.3508,3.3387,3.3367,3.3376,3.3371,3.3453,3.3463,3.3489,3.3627,3.3631,3.3511,3.3516,3.352,3.3522,0,0,0,0,0,0,0,3.3215,3.3231,3.3392,3.3339,3.3339,3.3326,3.3334,3.3424,3.3434,3.3368,3.3364,3.3375,3.3452,3.3482,3.3491,3.3633,3.3511,3.3518,3.3523,3.3526,3.3892,3.3896,0,0,0,0,0,0,3.3209,3.3225,3.3389,3.3394,3.3267,3.3333,3.3343,3.3384,3.3432,3.3435,3.3379,3.3372,3.347,3.3482,3.3494,3.3659,3.3519,3.3527,3.3531,3.3887,3.3893,3.3898,0,0,0,0,0,0,3.3204,3.3224,3.3385,3.3309,3.3328,3.3341,3.3389,3.3388,3.3417,3.344,3.3442,3.3407,3.3467,3.3483,3.3592,3.3662,3.3531,3.3538,3.3881,3.3889,3.3895,3.3989,0,0,0,0,0,0,3.3198,3.3223,3.3272,3.331,3.3332,3.3479,3.3393,3.3393,3.3431,3.3423,3.3467,3.347,3.3465,3.358,3.36,3.367,3.3544,3.3875,3.3884,3.3893,3.398,3.3999,3.4015,0,0,0,0,0,3.319,3.3295,3.3275,3.3295,3.3395,3.3483,3.3495,3.3486,3.3437,3.3488,3.3504,3.3469,3.3652,3.3592,3.3613,3.3687,3.387,3.3882,3.3892,3.3972,3.3995,3.4014,0,0,0,0,0,0,3.3265,3.3299,3.3278,3.3397,3.3438,3.3471,3.3535,3.3511,3.3566,3.3556,3.3544,3.3555,3.3669,3.3689,3.3623,3.3824,3.3753,3.3769,3.3806,3.3829,3.3846,3.3838,3.3551,0,0,0,0,0,3.3295,3.3362,3.3389,3.3492,3.3514,3.3522,3.356,3.355,3.3591,3.3608,3.3631,3.3675,3.3742,3.3787,3.385,3.3983,3.3994,3.4045,3.4063,3.4077,3.4091,3.4167,3.4191,3.3935,3.3934,3.3934,0,0,3.3358,3.3386,3.3428,3.3508,3.3538,3.361,3.3536,3.3614,3.3669,3.362,3.3724,3.3744,3.3792,3.3914,3.3969,3.3935,3.4165,3.4091,3.4103,3.4109,3.4181,3.4205,3.4226,3.3942,3.3941,3.394,0,0,3.351,3.3536,3.3626,3.3659,3.3706,3.3711,3.3734,3.3773,3.3784,3.3888,3.3855,3.392,3.4036,3.4072,3.4106,3.4279,3.425,3.43,3.4391,3.4465,3.4486,3.4503,3.4567,3.4589,3.4314,3.4314,3.4314,0,3.3582,3.3687,3.3676,3.3758,3.3796,3.3757,3.385,3.3883,3.3948,3.3977,3.3937,3.4084,3.4113,3.4245,3.4288,3.4316,3.4343,3.4294,3.4483,3.4501,3.4518,3.4578,3.4602,3.432,3.4319,3.4319,3.4318,0,3.3776,3.385,3.3918,3.3983,3.4028,3.4115,3.412,3.4169,3.4157,3.4168,3.4277,3.4312,3.4383,3.4414,3.4402,3.4546,3.4524,3.4484,3.4412,3.4548,3.4605,3.4628,3.4328,3.4326,3.4324,3.4323,0,0,3.3972,3.4034,3.4059,3.4089,3.4141,3.4199,3.4287,3.4356,3.4399,3.4448,3.4523,3.4624,3.4589,3.4628,3.4621,3.4686,3.4824,3.4639,3.464,3.4673,3.4988,3.5017,3.5043,3.4806,3.481,3.4813,3.4984,0,3.4128,3.4279,3.4274,3.4416,3.4487,3.4454,3.4531,3.4572,3.4587,3.4651,3.4667,3.474,3.4687,3.4711,3.4774,3.4793,3.4887,3.4781,3.4877,3.4881,3.4865,3.5073,3.5103,3.5261,3.5006,3.501,3.5012,0,3.4328,3.4384,3.4533,3.4578,3.4607,3.4676,3.4742,3.4803,3.4851,3.4858,3.4904,3.4888,3.498,3.4908,3.5037,3.4966,3.5006,3.5022,3.5028,3.5036,3.4954,3.5087,3.5312,3.5336,3.5047,3.5044,3.5041,0,3.4458,3.4571,3.4675,3.4703,3.4758,3.4808,3.4833,3.4877,3.4921,3.498,3.5008,3.5077,3.5115,3.5171,3.5175,3.5122,3.5307,3.5234,3.5316,3.5317,3.5355,3.5353,3.559,3.5382,3.5381,3.5381,3.538,0,3.4632,3.4724,3.4735,3.4799,3.4904,3.49,3.5005,3.5026,3.5067,3.5137,3.5113,3.518,3.5182,3.5252,3.5257,3.5365,3.5382,3.5391,3.5391,3.5393,3.5392,3.5418,3.5407,3.5387,3.5386,3.5385,3.5384,0,3.4793,3.4804,3.4916,3.4961,3.4974,3.505,3.5089,3.5152,3.5166,3.5255,3.5276,3.5298,3.5379,3.539,3.5485,3.5488,3.5619,3.5607,3.5602,3.56,3.5682,3.5675,3.5944,3.598,3.5749,3.5751,3.5753,0,3.4903,3.4974,3.5027,3.5072,3.5101,3.5173,3.5218,3.5219,3.5268,3.5331,3.5388,3.5466,3.5529,3.5661,3.5687,3.576,3.5751,3.5841,3.5761,3.5762,3.5753,3.5749,3.5757,3.5855,3.5858,3.586,3.5862,0,3.5097,3.51,3.5165,3.5234,3.5289,3.5343,3.5394,3.5433,3.5441,3.5497,3.558,3.5629,3.5727,3.5806,3.588,3.5909,3.5888,3.5887,3.591,3.5912,3.5906,3.5912,3.5643,3.588,3.5878,3.5877,3.5876,3.5875,3.5237,3.53,3.5348,3.5422,3.5462,3.5511,3.5573,3.5596,3.5665,3.5744,3.5742,3.5833,3.5885,3.5982,3.6017,3.609,3.6061,3.6094,3.6102,3.6111,3.6119,3.5896,3.6104,3.6103,3.6103,3.6102,3.6102,0,3.543,3.5461,3.553,3.5603,3.5663,3.5638,3.5695,3.5747,3.5828,3.5878,3.5941,3.6038,3.6117,3.615,3.6228,3.6281,3.6274,3.6301,3.6297,3.6305,3.614,3.6113,3.6306,3.6306,3.6306,3.6306,3.6306,3.6306,3.5538,3.5644,3.5654,3.5781,3.5811,3.59,3.5935,3.5982,3.6022,3.6131,3.6196,3.6218,3.6263,3.6345,3.6417,3.6425,3.6455,3.6487,3.6492,3.6337,3.6316,3.6296,3.627,3.6494,3.6494,3.665,3.6651,3.6652]},{"header":{"parameterUnit":"m.s-1","parameterCategory":1,"la1":30.2991,"la2":30.254,"lo1":-89.0895,"lo2":-89.0444,"dy":0.0017,"dx":0.0017,"nx":28,"ny":28,"refTime":"2025-08-15T21:00:00:Z","depth":0,"parameterNumber":3,"parameterNumberName":"V-component_of_WINDS"},"data":[0,0,0,0,0,0,0,0,0,0,0,0,0,0,0,0,0,0,0,0,0,0,0,0,0,0,0,0,0,0,0,0,0,0,0,0,0,0,0,0,0,0,0,0,0,0,0,0,0,0,0,0,0,0,0,0,0,0,0.7118,0.712,0,0.7359,0.7362,0.7365,0.7439,0.7437,0.7436,0.7435,0.7685,0.7693,0.77,0,0,0,0,0,0,0,0,0,0,0,0,0,0.6721,0.6728,0.7117,0.712,0.7123,0.7359,0.7362,0.7365,0.7439,0.7437,0.7436,0.7435,0.7683,0.7692,0.7701,0,0,0,0,0,0,0,0,0,0,0,0,0,0.6921,0.673,0.7117,0.7188,0.7197,0.7358,0.7362,0.7366,0.7439,0.7437,0.7435,0.7434,0.768,0.7691,0.7702,0.781,0,0,0.7738,0.7743,0,0,0,0,0,0,0,0,0.691,0.6936,0.7175,0.7184,0.7194,0.7367,0.7314,0.7515,0.744,0.7347,0.7435,0.7433,0.7581,0.7601,0.765,0.7822,0.7833,0.7739,0.7746,0.7751,0.7754,0,0,0,0,0,0,0,0.6896,0.6926,0.7213,0.7178,0.719,0.7209,0.7235,0.7353,0.7471,0.7355,0.7361,0.7389,0.7586,0.7638,0.7656,0.7836,0.7739,0.7749,0.7756,0.7761,0.8107,0.8109,0,0,0,0,0,0,0.6869,0.6914,0.7206,0.722,0.7044,0.7217,0.7247,0.7313,0.747,0.7492,0.739,0.7391,0.7619,0.7643,0.7665,0.7801,0.7751,0.7762,0.7769,0.8104,0.8107,0.8109,0,0,0,0,0,0,0.6861,0.6895,0.7196,0.7069,0.7108,0.7226,0.73,0.7319,0.7372,0.7496,0.7518,0.7422,0.7619,0.7649,0.7773,0.781,0.7767,0.7778,0.8102,0.8105,0.8108,0.8072,0,0,0,0,0,0,0.6849,0.6891,0.6933,0.7069,0.7115,0.7299,0.7302,0.7325,0.7391,0.7395,0.7532,0.7553,0.762,0.7755,0.7784,0.7826,0.7787,0.8099,0.8103,0.8107,0.8071,0.8074,0.8076,0,0,0,0,0,0.6835,0.6915,0.6935,0.697,0.717,0.7301,0.7327,0.7402,0.7394,0.7437,0.7517,0.7549,0.7801,0.7767,0.7801,0.7846,0.8097,0.8102,0.8107,0.8069,0.8073,0.8076,0,0,0,0,0,0,0.6782,0.6934,0.6958,0.7085,0.7179,0.7313,0.737,0.7404,0.7503,0.7503,0.7592,0.7622,0.7739,0.7805,0.7765,0.7957,0.795,0.7962,0.791,0.7915,0.7918,0.7899,0.7797,0,0,0,0,0,0.6785,0.6878,0.7006,0.7105,0.7151,0.7252,0.7312,0.7361,0.7463,0.7504,0.7593,0.7691,0.7792,0.7857,0.7958,0.808,0.811,0.8127,0.813,0.8132,0.8142,0.8209,0.8218,0.8126,0.8126,0.8125,0,0,0.6793,0.6887,0.6941,0.7097,0.7176,0.727,0.7286,0.7386,0.7456,0.7519,0.7641,0.7709,0.7825,0.7947,0.8006,0.8006,0.8173,0.8138,0.8139,0.8148,0.8215,0.8224,0.8231,0.8129,0.8128,0.8128,0,0,0.6854,0.6935,0.7026,0.7104,0.7222,0.7289,0.731,0.7439,0.7486,0.7609,0.7658,0.7743,0.7916,0.7996,0.8059,0.8147,0.818,0.8177,0.8193,0.8258,0.8265,0.8272,0.8302,0.8312,0.8186,0.8186,0.8186,0,0.6849,0.6993,0.7068,0.7165,0.7232,0.7291,0.7383,0.7455,0.7601,0.7646,0.7643,0.7859,0.7942,0.8083,0.8104,0.8154,0.818,0.8163,0.8258,0.8266,0.8273,0.8303,0.8314,0.8185,0.8185,0.8185,0.8185,0,0.6979,0.7078,0.7137,0.7274,0.7347,0.7441,0.7531,0.7596,0.7638,0.7704,0.7827,0.7927,0.8048,0.8085,0.8128,0.8232,0.8228,0.824,0.8235,0.8279,0.8309,0.8321,0.8183,0.8184,0.8184,0.8184,0,0,0.7017,0.7192,0.7212,0.7274,0.7408,0.7486,0.7582,0.7698,0.7752,0.7849,0.7931,0.8075,0.8086,0.8158,0.821,0.8266,0.8328,0.8272,0.8276,0.8278,0.8447,0.8436,0.8448,0.8349,0.8352,0.8354,0.8437,0,0.7095,0.7267,0.7337,0.7477,0.7568,0.7624,0.7708,0.7799,0.7862,0.7949,0.802,0.812,0.8128,0.8171,0.823,0.8308,0.8363,0.8303,0.8426,0.843,0.8395,0.8464,0.8454,0.8527,0.8449,0.8451,0.8452,0,0.7209,0.7306,0.7454,0.7574,0.7615,0.7689,0.78,0.7882,0.7986,0.8028,0.8106,0.8154,0.8256,0.8243,0.8384,0.8341,0.8396,0.8441,0.8446,0.846,0.8444,0.8479,0.8552,0.8562,0.8471,0.847,0.8468,0,0.722,0.7387,0.7497,0.7548,0.7692,0.7742,0.7804,0.7906,0.797,0.8067,0.811,0.8218,0.8277,0.8359,0.8434,0.8418,0.8567,0.8561,0.8605,0.8603,0.8634,0.8631,0.8716,0.8669,0.8669,0.8669,0.8669,0,0.7299,0.7388,0.7503,0.7571,0.7671,0.775,0.7847,0.7913,0.8002,0.8084,0.8139,0.8214,0.8309,0.8396,0.8455,0.8562,0.8588,0.8625,0.8639,0.862,0.8615,0.8657,0.8653,0.8672,0.8671,0.8671,0.867,0,0.7329,0.7409,0.7533,0.7657,0.7691,0.7759,0.7866,0.7933,0.7998,0.81,0.8129,0.8231,0.8336,0.8419,0.8556,0.8596,0.8708,0.8724,0.8672,0.868,0.8718,0.8713,0.8833,0.8852,0.8792,0.8793,0.8793,0,0.7374,0.7443,0.7574,0.7632,0.7693,0.7785,0.7851,0.7931,0.7996,0.8118,0.817,0.8279,0.837,0.8534,0.8621,0.8725,0.8745,0.8779,0.8761,0.8738,0.8744,0.8739,0.8745,0.8781,0.8782,0.8782,0.8782,0,0.7445,0.7481,0.7573,0.7678,0.7754,0.7841,0.793,0.7974,0.807,0.8141,0.8247,0.8318,0.8456,0.8563,0.8676,0.874,0.8777,0.8787,0.8802,0.8783,0.8749,0.8767,0.8677,0.8784,0.8784,0.8784,0.8784,0.8783,0.7484,0.7547,0.7648,0.7748,0.7822,0.7903,0.7971,0.8044,0.8134,0.8253,0.8294,0.8404,0.8504,0.8659,0.8723,0.881,0.8812,0.8835,0.8841,0.8845,0.8842,0.8735,0.8831,0.8831,0.8831,0.8831,0.8831,0,0.7557,0.7624,0.7715,0.7836,0.7914,0.794,0.8039,0.8102,0.8198,0.8287,0.8375,0.8496,0.8599,0.8693,0.88,0.8851,0.887,0.8876,0.8873,0.8887,0.8834,0.881,0.8858,0.8858,0.8858,0.8858,0.8858,0.8858,0.7604,0.7712,0.7759,0.7903,0.797,0.8077,0.8131,0.8205,0.8277,0.8409,0.8495,0.8554,0.8645,0.8759,0.8854,0.8879,0.8915,0.8916,0.8945,0.8895,0.8891,0.8887,0.8864,0.8924,0.8924,0.8991,0.8991,0.8992]}]]